Location: Monrovia
(34.7865°N, 86.7139°W)
Time: 21:57:41
(UTC+00:00)

SeaSat 1 - Pass Details

Date: 14 July 2020
Orbit: 744 x 747 km, 108.0° (Epoch: 08 August)

Event Time Altitude Azimuth Distance (km) Brightness Sun altitude
Rises 08:56:03 0° 4° (N) 3,196 6.5 -18.8°
Reaches altitude 10° 08:59:15 10° 341° (NNW) 2,268 5.3 -18.3°
Maximum altitude 09:01:56 15° 308° (NW) 1,949 4.5 -18.0°
Enters shadow 09:03:52 12° 283° (WNW) 2,119 4.5 -17.7°
